Weather observations for the past three days for
Eastern WV Regional Airport/Shepherd Field
Metric (Imperial)
Date Time (edt) Wind (kph) Vis. (km) Weather Sky Cond. Temperature (ºC) Relative Humidity Wind Chill (°C) Heat Index (°C) Pressure Precipitation (cm)
Air Dwpt 6 hour altimeter (cm) sea level (mb) 1 hr 3 hr 6 hr
Max. Min.
15 18:53 S 13 G 33 16.09 Fair CLR 31.1 18.9 48% 32 75.74 1009.1
15 17:53 S 19 G 39 16.09 Partly Cloudy SCT110 32.8 20.6 49% 36 75.72 1008.8
15 16:53 S 28 16.09 Fair CLR 33.3 19.4 44% 35 75.74 1008.9
15 15:53 W 17 G 33 16.09 Fair CLR 36.7 15.6 28% 37 75.79 1009.6
15 14:53 W 31 G 46 16.09 Fair CLR 37.8 16.1 28% 38 75.87 1010.6
15 13:53 SW 15 G 30 16.09 A Few Clouds FEW080 35.6 17.2 36.1 26.1 34% 36 75.95 1011.6
15 12:53 W 7 16.09 Fair CLR 34.4 17.8 37% 35 76 1012.4
15 11:53 W 19 G 35 16.09 Fair CLR 33.3 18.9 43% 35 76.05 1013.1
15 10:53 NW 13 16.09 Fair CLR 32.2 19.4 47% 34 76.1 1013.7
15 09:53 W 9 16.09 Fair CLR 29.4 18.3 51% 30 76.12 1014.3
15 08:53 W 17 16.09 Fair CLR 28.3 17.8 53% 29 76.15 1014.6
15 07:53 SW 7 16.09 Fair CLR 26.1 17.8 26.7 22.8 60% 27 76.15 1014.5
15 06:53 S 9 16.09 Fair CLR 23.9 17.2 66% 25 76.1 1014.0
15 05:53 SW 9 16.09 Partly Cloudy SCT110 25.6 17.2 60% 27 76.1 1013.9
15 04:53 W 13 16.09 Overcast OVC110 26.7 17.2 56% 27 76.07 1013.4
15 03:53 W 9 16.09 Fair CLR 25.6 17.2 60% 27 76.02 1012.8
15 02:53 W 11 16.09 Fair CLR 23.3 17.2 69% 76 1012.7
15 01:53 SW 6 16.09 Fair CLR 22.8 17.2 32.2 22.8 71% 76 1012.5
15 00:53 Calm 16.09 A Few Clouds FEW090 23.3 18.9 76% 76.02 1012.9
14 23:53 Calm 16.09 Fair CLR 23.9 18.9 74% 25 76.02 1012.8
14 22:53 Calm 16.09 A Few Clouds FEW100 26.1 18.9 65% 27 76.02 1012.8
14 21:53 Calm 16.09 Fair CLR 26.7 18.9 62% 28 76.02 1013.0
14 20:53 S 6 16.09 Partly Cloudy SCT095 30 17.8 48% 31 76.05 1013.2
14 19:53 S 7 16.09 Fair CLR 32.8 16.1 36.1 32.8 37% 33 76.05 1013.1
14 18:53 W 15 16.09 Partly Cloudy SCT110 35 13.3 27% 34 76.02 1013.0
14 17:53 SW 13 16.09 Fair CLR 35.6 11.7 23% 34 76.02 1013.0
14 16:53 Vrbl 7 16.09 Fair CLR 35.6 15.6 30% 36 76.05 1013.1
14 15:53 Calm 16.09 A Few Clouds FEW095 33.9 15.6 33% 34 76.07 1013.5
14 14:53 N 9 16.09 Partly Cloudy SCT085 SCT110 34.4 15.6 32% 34 76.15 1014.7
14 13:53 Calm 16.09 A Few Clouds FEW095 33.9 15 34.4 22.8 32% 34 76.2 1015.4
14 12:53 N 13 16.09 Fair CLR 33.9 16.1 34% 34 76.3 1016.6
14 11:53 Vrbl 7 16.09 A Few Clouds FEW100 32.8 18.9 44% 34 76.33 1017.1
14 10:53 Vrbl 7 16.09 Fair CLR 31.1 20 52% 33 76.38 1017.5
14 09:53 Calm 16.09 Fair CLR 28.9 20 59% 31 76.38 1017.7
14 08:53 Calm 16.09 Fair CLR 26.1 20.6 72% 28 76.4 1018.0
14 07:53 Calm 16.09 Partly Cloudy SCT080 22.8 20.6 23.3 20 87% 76.4 1017.8
14 06:53 Calm 16.09 Fair CLR 21.1 20.6 97% 76.35 1017.5
14 05:53 Calm 14.48 Fair CLR 20 20 100% 76.35 1017.4
14 04:53 Calm 16.09 Fair CLR 21.1 20 93% 76.35 1017.4
14 03:53 Calm 16.09 Fair CLR 21.1 20.6 97% 76.35 1017.3
14 02:53 Calm 16.09 A Few Clouds FEW120 21.7 20.6 94% 76.35 1017.4
14 01:53 S 7 16.09 A Few Clouds FEW120 22.8 20.6 29.4 22.2 87% 76.38 1017.6
14 00:53 Calm 16.09 Mostly Cloudy BKN080 22.8 21.1 90% 76.43 1018.3
13 23:53 NW 6 16.09 Partly Cloudy SCT085 25 20.6 77% 26 76.43 1018.4
13 22:53 Calm 16.09 Fair CLR 23.9 21.1 84% 24 76.43 1018.4
13 21:53 Calm 16.09 Fair CLR 26.1 21.1 74% 28 76.43 1018.3
13 20:53 SE 7 16.09 Partly Cloudy SCT085 27.8 21.1 67% 30 76.4 1018.1
13 19:53 Calm 16.09 A Few Clouds FEW085 29.4 20.6 32.8 29.4 59% 32 76.4 1018.1
13 18:53 Calm 16.09 Fair CLR 30 19.4 53% 32 76.38 1017.8
13 17:53 Vrbl 6 16.09 A Few Clouds FEW120 32.2 17.8 42% 33 76.38 1017.6
13 16:53 NE 13 16.09 Mostly Cloudy BKN100 32.8 18.3 42% 34 76.38 1017.8
13 15:53 E 11 16.09 A Few Clouds FEW110 32.8 18.3 42% 34 76.43 1018.2
13 14:53 E 13 16.09 Fair CLR 32.2 18.9 45% 34 76.45 1018.7
13 13:53 Calm 16.09 Fair CLR 31.1 20.6 32.2 22.8 54% 34 76.5 1019.3
13 12:53 Vrbl 7 16.09 Fair CLR 30 20.6 57% 32 76.56 1020.0
13 11:53 Vrbl 11 16.09 Fair CLR 29.4 21.1 61% 32 76.61 1020.6
13 10:53 Calm 16.09 Partly Cloudy SCT012 27.2 21.1 69% 29 76.63 1021.2
13 09:53 NW 6 16.09 Mostly Cloudy BKN014 25 20.6 77% 26 76.63 1021.2
13 08:53 Calm 16.09 Mostly Cloudy BKN014 23.3 21.1 88% 76.66 1021.4
13 07:53 Calm 9.66 Fog/Mist BKN007 BKN011 23.3 21.1 23.3 20 88% 76.66 1021.4
13 06:53 Calm 6.44 Fog/Mist OVC004 21.1 21.1 100% 76.66 1021.4
13 05:53 Calm 9.66 Fog/Mist FEW004 SCT120 21.1 21.1 100% 76.61 1020.8
13 04:53 Calm 8.05 Fog/Mist FEW120 20.6 20.6 100% 76.61 1020.7
13 03:53 N 7 14.48 Fair CLR 21.7 20.6 94% 76.58 1020.3
13 02:53 Calm 12.87 Partly Cloudy FEW015 SCT120 20.6 20.6 100% 76.58 1020.4
13 01:53 Calm 14.48 Overcast BKN018 OVC120 21.7 21.1 24.4 21.1 96% 76.61 1020.7
13 00:53 N 7 16.09 Mostly Cloudy SCT024 BKN120 21.7 20.6 94% 76.63 1021.0
12 23:53 Calm 16.09 Fair CLR 21.1 20 93% 76.63 1021.0
12 22:53 E 6 16.09 Fair CLR 21.7 20.6 94% 76.63 1021.1
12 21:53 E 6 16.09 Fair CLR 22.2 20.6 91% 76.63 1021.0
12 20:53 Calm 16.09 A Few Clouds FEW110 23.3 20 82% 76.61 1020.9
12 19:53 S 13 16.09 A Few Clouds FEW120 25 20 27.2 24.4 74% 26 76.61 1021.0
Date Time (edt) Wind (kph) Vis. (km) Weather Sky Cond. Air Dwpt Max. Min. Relative Humidity Wind Chill (°C) Heat Index (°C) altimeter (cm) sea level (mb) 1 hr 3 hr 6 hr
6 hour
Temperature (ºC) Pressure Precipitation (cm)